Погода в Юнкюре

Россия / Республика Саха (Якутия)     66°33′25″N   132°55′01″E
темп.,
°C
ветер,
м/с
пор.,
м/с
влажн.,
%
обл.,
%
осадки,
мм/ч
давл.,
гПа
погр.,
м
27 февраля, сб
сб2701:00−33ю119193 0.0 103219
04:00−32ю119097 0.0 103119
07:00−33юз009197 0.0 103119
10:00−33юз019176 0.0 103119
13:00−29зюз01830 0.0 1030241
16:00−28ссв11860 0.0 1028209
19:00−34св11960 0.0 102919
22:00−35ссз11980 0.0 102919
28 февраля, вс
вс2801:00−36с111000 0.0 102819
04:00−38сз0110010 0.0 102719
07:00−38зсз0010023 0.0 102719
10:00−36ююз119833 0.0 102619
13:00−32ююз118869 0.0 1025233
16:00−30ю118672 0.0 1023272
19:00−35ююв129422 0.0 102519
22:00−35ю129414 0.0 102519
1 марта, пн
пн101:00−36ю229427 0.0 102419
04:00−36ю229334 0.0 102419
07:00−34ю1292100 0.0 102419
10:00−33ю1191100 0.0 102444
13:00−30ююз118591 0.0 1022268
16:00−29вюв008594 0.0 1022266
19:00−32св119489 0.0 102319
22:00−31ссв119495 0.0 102319
2 марта, вт
вт201:00−31с1199100 0.1 102419
04:00−32с1299100 0.1 102423
07:00−32с119999 0.1 102519
10:00−31с129899 0.1 1025103
13:00−30с119197 0.0 1025317
16:00−29с119098 0.0 1025304
19:00−35с119976 0.0 102719
22:00−36ссз1110071 0.0 102819
3 марта, ср
ср301:00−36сз1110096 0.0 102719
04:00−34ссз119898 0.0 102719
07:00−34с1199100 0.1 102651
10:00−33ссз1196100 0.4 1025145
13:00−31ссз1291100 0.1 1022335
16:00−31с1290100 0.2 1021399
19:00−32с1299100 0.1 102027
22:00−33с1299100 0.3 102037